Simultaneous Nadir Overpasses (SNOs) Predictions

Prediction of SNOs between METOP-B and NOAA-19 Satellite Orbit:

Table of predicted SNOs for the next 14.0 days since TLE Epoch: 6/3/2023
Index Date (METOP-B) Time (METOP-B) Lat,Lon (METOP-B) SZA (METOP-B ) Date (NOAA-19) Time (NOAA-19) Lat,Lon (NOAA-19) SZA (NOAA-19 ) Distance(km) Time Diff (sec)
1 06/12/2023 21:07:13 80.91,-102.70 59.38 06/12/2023 21:06:07 80.91,-102.85 59.33 2.65 66
2 06/12/2023 21:57:54 -80.92, 64.73 120.62 06/12/2023 21:57:04 -80.92, 64.89 120.62 2.88 50
3 06/12/2023 22:48:33 80.92,-127.84 59.40 06/12/2023 22:48:04 80.92,-127.94 59.37 2.03 29
4 06/12/2023 23:39:15 -80.91, 39.23 120.64 06/12/2023 23:39:03 -80.91, 39.05 120.66 3.26 12
5 06/13/2023 00:29:55 80.92,-153.33 59.37 06/13/2023 00:30:03 80.92,-153.40 59.37 1.25 8
6 06/13/2023 01:20:36 -80.92, 14.10 120.62 06/13/2023 01:21:01 -80.92, 13.95 120.63 2.57 25
7 06/13/2023 02:11:16 80.93,-178.47 59.40 06/13/2023 02:12:01 80.92,-178.50 59.41 0.74 45



Historial Predications of SNOs between METOP-B and NOAA-19
